TimeMST,TemperatureF,Dew PointF,Humidity,Sea Level PressureIn,VisibilityMPH,Wind Direction,Wind SpeedMPH,Gust SpeedMPH,PrecipitationIn,Events,Conditions,WindDirDegrees,DateUTC
12:56 AM,28.9,24.1,82,30.13,-9999.0,South,4.6,-,N/A,,Unknown,180,2012-11-14 07:56:00
1:56 AM,30.9,24.1,76,30.12,-9999.0,SW,3.5,-,N/A,,Unknown,220,2012-11-14 08:56:00
2:56 AM,32.0,25.0,75,30.12,-9999.0,West,3.5,-,N/A,,Unknown,260,2012-11-14 09:56:00
3:56 AM,32.0,25.0,75,30.11,-9999.0,WSW,3.5,-,N/A,,Unknown,240,2012-11-14 10:56:00
4:56 AM,30.0,24.1,79,30.11,-9999.0,Calm,Calm,-,N/A,,Unknown,0,2012-11-14 11:56:00
5:56 AM,28.9,23.0,78,30.11,-9999.0,SSW,5.8,-,N/A,,Unknown,210,2012-11-14 12:56:00
6:56 AM,28.9,23.0,78,30.12,-9999.0,West,4.6,-,N/A,,Unknown,270,2012-11-14 13:56:00
7:56 AM,30.0,21.9,72,30.13,-9999.0,West,8.1,-,N/A,,Unknown,270,2012-11-14 14:56:00
8:56 AM,36.0,27.0,70,30.10,-9999.0,Calm,Calm,-,N/A,,Unknown,0,2012-11-14 15:56:00
9:56 AM,44.1,28.9,55,30.08,-9999.0,SW,9.2,-,N/A,,Unknown,230,2012-11-14 16:56:00
10:56 AM,46.0,26.1,46,30.06,-9999.0,West,6.9,-,N/A,,Unknown,280,2012-11-14 17:56:00
11:56 AM,48.0,26.1,42,30.03,-9999.0,West,12.7,-,N/A,,Unknown,270,2012-11-14 18:56:00
12:56 PM,50.0,25.0,38,30.02,-9999.0,West,16.1,-,N/A,,Unknown,280,2012-11-14 19:56:00
1:56 PM,52.0,25.0,35,30.00,-9999.0,WNW,15.0,-,N/A,,Unknown,300,2012-11-14 20:56:00
2:56 PM,50.0,24.1,36,30.01,-9999.0,West,11.5,-,N/A,,Unknown,280,2012-11-14 21:56:00
3:56 PM,46.0,25.0,44,30.04,-9999.0,NW,11.5,-,N/A,,Unknown,310,2012-11-14 22:56:00
4:56 PM,39.9,26.1,58,30.06,-9999.0,WNW,8.1,-,N/A,,Unknown,300,2012-11-14 23:56:00
5:56 PM,37.0,26.1,65,30.09,-9999.0,WNW,6.9,-,N/A,,Unknown,290,2012-11-15 00:56:00
6:56 PM,35.1,25.0,67,30.12,-9999.0,WNW,8.1,-,N/A,,Unknown,300,2012-11-15 01:56:00
7:56 PM,28.9,23.0,78,30.14,-9999.0,WNW,8.1,-,N/A,,Unknown,290,2012-11-15 02:56:00
8:56 PM,32.0,25.0,75,30.15,-9999.0,WNW,10.4,-,N/A,,Unknown,300,2012-11-15 03:56:00
9:56 PM,30.0,24.1,79,30.15,-9999.0,WNW,10.4,-,N/A,,Unknown,290,2012-11-15 04:56:00
10:56 PM,28.0,23.0,81,30.16,-9999.0,West,9.2,-,N/A,,Unknown,280,2012-11-15 05:56:00
11:56 PM,28.9,25.0,85,30.18,-9999.0,NW,13.8,-,N/A,,Unknown,310,2012-11-15 06:56:00